Regional Weather Roundup
Issued by NWS

Home | Current Version | Previous Version | Text Only | Print | Product List | Glossary Off
Versions: 1 2 3 4 5 6 7 8 9 10 11 12 13 14 15 16 17 18 19 20 21 22 23 24 25 26 27 28 29 30 31 32 33 34 35 36 37 38 39 40 41 42 43 44 45 46 47 48 49 50

000
ASUS45 KTFX 201110
RWRMT
MONTANA REGIONAL WEATHER ROUNDUP
NATIONAL WEATHER SERVICE GREAT FALLS MT
500 AM MDT SUN AUG 20 2017

NOTE: "FAIR" INDICATES FEW OR NO CLOUDS BELOW 12000 FEET WITH NO
SIGNIFICANT WEATHER AND/OR OBSTRUCTIONS TO VISIBILITY.

MTZ001>007-043-201200-
WEST OF THE DIVIDE

CITY           SKY/WX    TMP DP  RH WIND       PRES   REMARKS
KALISPELL      CLEAR     40  37  89 CALM      30.05S
MISSOULA       CLEAR     50  38  63 CALM      30.10S
BUTTE          CLEAR     43  33  68 SE5       30.16S
MULLAN PASS    CLEAR     50  30  46 NW3       30.18S
ANACONDA         N/A     46  34  61 SW6       30.15S
DEER LODGE       N/A     43  34  70 CALM      30.16S
EUREKA           N/A     45  30  57 MISG      30.05R
HAMILTON         N/A     48  37  66 CALM      30.12S
LIBBY            N/A     45  36  70 CALM      30.06R
PLAINS           N/A     45  35  67 CALM      30.08R
THOMPSON FALLS   N/A     44  36  73 CALM      30.11S
$$

MTZ008-052>055-201200-
SOUTHWEST MONTANA

CITY           SKY/WX    TMP DP  RH WIND       PRES   REMARKS
BOZEMAN        CLEAR     50  40  68 CALM      30.09S
DILLON         CLEAR     50  33  52 S7        30.12F
W YELLOWSTONE  CLOUDY    36  32  87 CALM      30.18R
ENNIS          MOCLDY    52  34  50 S9        30.17S
THREE FORKS      N/A     46  36  68 CALM      30.07S
TWIN BRIDGES     N/A     51  31  46 CALM      30.09R
$$

MTZ009-010-012-014-046-048-049-054-201200-
EAST SLOPES AND CENTRAL MONTANA

CITY           SKY/WX    TMP DP  RH WIND       PRES   REMARKS
CUT BANK       CLEAR     48  34  58 CALM      30.03F
GREAT FALLS    CLEAR     48  37  65 SW8       30.05R
MALMSTROM AFB  CLEAR     48  39  70 SW8       30.04S
HELENA         CLEAR     59  38  45 VRB6      30.07F
AUGUSTA          N/A     45  35  66 N6        30.07S
BOWMANS CRNR     N/A     49  35  58 SW7       30.06S
CHOTEAU          N/A     46  37  71 W6        30.06S
CONRAD           N/A     43  38  82 CALM      30.05S
FAIRFIELD        N/A     44  36  72 CALM      30.04S
POWER            N/A     48  34  58 NW9       30.03S
RAYNESFORD       N/A     51  37  60 E5        30.06R
ULM              N/A     46  37  71 S3        30.05S
$$

MTZ011-013-016-021-045-047-050-051-201200-
NORTH CENTRAL MONTANA

CITY           SKY/WX    TMP DP  RH WIND       PRES   REMARKS
HAVRE          MOCLDY    52  31  44 NE9       30.02R
LEWISTOWN      CLEAR     51  35  54 SE9       30.06F
N BAR RANCH      N/A     45  34  65 W6        30.12F
CHINOOK          N/A     48  34  57 CALM      30.04R
DENTON           N/A     52  35  53 E3        30.01S
GEYSER           N/A     50  37  61 SW13      30.04F
GRASS RANGE      N/A     48  35  59 CALM      30.04F
JUDITH GAP       N/A     49  36  61 SW20      30.10S
WINIFRED       MOCLDY    51  33  49 E13       30.04F
$$

MTZ017>020-022>027-061-062-201200-
NORTHEAST MONTANA

CITY           SKY/WX    TMP DP  RH WIND       PRES   REMARKS
GLASGOW        MOCLDY    47  33  58 S5        30.04R
JORDAN           N/A     54  34  46 CALM      30.05S
SIDNEY         CLOUDY    49  38  65 CALM      30.05S
WOLF POINT     CLOUDY    45  34  65 CALM      30.06R
MALTA          MOCLDY    50  37  62 W3        30.05R
PLENTYWOOD       N/A     48  36  61 CALM      30.05R
POPLAR           N/A     48  36  61 SE3       30.06R
SCOBEY           N/A     36  27  70 CALM      30.04R
$$

MTZ028>42-056>058-201200-
SOUTHCENTRAL AND SOUTHEAST MONTANA

CITY           SKY/WX    TMP DP  RH WIND       PRES   REMARKS
BAKER          MOCLDY    57  37  47 E8        30.07R
BILLINGS       CLOUDY    59  37  44 NE9       30.04S
LIVINGSTON     CLEAR     51  37  58 S6        30.09R
MILES CITY     CLOUDY    61  36  39 E8        30.03S
BIG TIMBER     CLOUDY    52  39  62 NE7       30.11S
EKALAKA          N/A     59  35  40 NE10      30.03S
HARLOWTON        N/A     55  40  56 MISG      30.09F
LAUREL           N/A     57  34  42 CALM      30.03F
$$

REGIONAL REPORTS...DAKOTAS

CITY           SKY/WX    TMP DP  RH WIND       PRES   REMARKS
WILLISTON      CLEAR     46  40  79 CALM      30.04R
MINOT          CLOUDY    56  40  55 W8        29.98R
DICKINSON      MOCLDY    50  44  80 CALM      30.03S
BEACH          CLOUDY    50  41  71 NE3       30.09S
CROSBY           N/A     46  36  66 W5        30.03R
TIOGA            N/A     43  43 100 W5        30.05R
BISMARCK       CLOUDY    58  49  72 W5        30.03R
GRAND FORKS    PTCLDY    60  52  74 NW10      29.84R
FARGO          CLEAR     61  54  77 W9        29.88R
BUFFALO SD       N/A     59  43  55 NE14      29.98R
RAPID CITY     CLOUDY    59  48  67 N12       30.04R
$$

REGIONAL REPORTS...WYOMING/IDAHO/WASHINGTON

CITY           SKY/WX    TMP DP  RH WIND       PRES   REMARKS
GILLETTE       PTCLDY    51  41  68 CALM      30.05R
SHERIDAN       PTCLDY    50  41  71 S5        30.06R
BUFFALO WY     CLEAR     57  35  43 NW5       30.11R
CODY           CLEAR     58  37  45 NW3       30.09S
YELLOWSTONE LA   N/A     36  32  85 CALM      30.24S
IDAHO FALLS    CLEAR     59  40  49 S9        30.06F
SALMON         CLEAR     48  37  65 CALM      30.12S
BOISE          CLEAR     57  41  55 SW3       30.02R
SPOKANE        MOCLDY    58  38  47 CALM      30.05F
$$

REGIONAL REPORTS...ALBERTA

CITY           SKY/WX    TMP DP  RH WIND       PRES   REMARKS
EDMONTON       CLOUDY    50  43  76 W6        29.95S
CALGARY        PTCLDY    46  37  71 N3        30.01S
LETHBRIDGE     CLEAR     45  37  76 SW10      29.99F
MEDICINE HAT   PTCLDY    52  45  76 CALM      29.99F
$$

REGIONAL REPORTS...SASKATCHEWAN

CITY           SKY/WX    TMP DP  RH WIND       PRES   REMARKS
SWIFT CURRENT  MOCLDY    45  36  70 SW9       30.03S
REGINA         CLEAR     39  36  87 W5        30.00R
SASKATOON      PTCLDY    41  39  93 W7        29.96R
$$



USA.gov is the U.S. government's official web portal to all federal, state and local government web resources and services.